TimeEDT,TemperatureF,Dew PointF,Humidity,Sea Level PressureIn,VisibilityMPH,Wind Direction,Wind SpeedMPH,Gust SpeedMPH,PrecipitationIn,Events,Conditions,WindDirDegrees,DateUTC
12:53 AM,70.0,68.0,93,30.16,-9999.0,North,4.6,-,N/A,,Scattered Clouds,350,2013-06-23 04:53:00
1:53 AM,70.0,66.9,90,30.14,-9999.0,NNW,3.5,-,N/A,,Mostly Cloudy,330,2013-06-23 05:53:00
2:53 AM,68.0,66.0,93,30.14,-9999.0,SSW,3.5,-,N/A,,Mostly Cloudy,210,2013-06-23 06:53:00
3:53 AM,69.1,66.9,93,30.15,-9999.0,SSW,3.5,-,N/A,,Overcast,200,2013-06-23 07:53:00
4:11 AM,69.8,66.2,88,30.17,-9999.0,Calm,Calm,-,N/A,,Mostly Cloudy,0,2013-06-23 08:11:00
4:20 AM,68.0,66.2,94,30.17,-9999.0,Calm,Calm,-,N/A,,Scattered Clouds,0,2013-06-23 08:20:00
4:50 AM,66.2,64.4,94,30.17,-9999.0,Calm,Calm,-,N/A,,Scattered Clouds,0,2013-06-23 08:50:00
4:53 AM,66.9,64.9,93,30.14,-9999.0,South,3.5,-,N/A,,Scattered Clouds,190,2013-06-23 08:53:00
5:00 AM,66.2,64.4,94,30.17,-9999.0,South,3.5,-,N/A,,Mostly Cloudy,180,2013-06-23 09:00:00
5:53 AM,66.9,64.9,93,30.15,-9999.0,Calm,Calm,-,N/A,,Overcast,0,2013-06-23 09:53:00
6:53 AM,68.0,66.9,96,30.17,-9999.0,Calm,Calm,-,N/A,,Overcast,0,2013-06-23 10:53:00
7:53 AM,69.1,68.0,96,30.19,-9999.0,SW,3.5,-,N/A,,Overcast,230,2013-06-23 11:53:00
8:08 AM,69.8,68.0,94,30.22,-9999.0,Calm,Calm,-,N/A,,Overcast,0,2013-06-23 12:08:00
8:36 AM,71.6,69.8,94,30.23,-9999.0,Calm,Calm,-,N/A,,Scattered Clouds,0,2013-06-23 12:36:00
8:53 AM,71.1,69.1,93,30.20,-9999.0,WSW,3.5,-,N/A,,Partly Cloudy,250,2013-06-23 12:53:00
9:41 AM,75.2,69.8,83,30.23,-9999.0,Calm,Calm,-,N/A,,Overcast,0,2013-06-23 13:41:00
9:50 AM,77.0,69.8,78,30.23,-9999.0,Calm,Calm,-,N/A,,Mostly Cloudy,0,2013-06-23 13:50:00
9:53 AM,77.0,70.0,79,30.20,-9999.0,Calm,Calm,-,N/A,,Scattered Clouds,0,2013-06-23 13:53:00
10:53 AM,79.0,69.1,72,30.20,-9999.0,Variable,3.5,-,N/A,,Overcast,0,2013-06-23 14:53:00
11:09 AM,80.6,69.8,70,30.23,-9999.0,West,4.6,-,N/A,,Mostly Cloudy,270,2013-06-23 15:09:00
11:53 AM,82.0,69.1,65,30.19,-9999.0,Calm,Calm,-,N/A,,Mostly Cloudy,0,2013-06-23 15:53:00
12:53 PM,84.0,68.0,58,30.17,-9999.0,WNW,3.5,-,N/A,,Partly Cloudy,290,2013-06-23 16:53:00
1:53 PM,84.9,69.1,59,30.15,-9999.0,West,5.8,-,N/A,,Partly Cloudy,260,2013-06-23 17:53:00
2:53 PM,87.1,68.0,53,30.13,-9999.0,Variable,4.6,-,N/A,,Scattered Clouds,0,2013-06-23 18:53:00
3:53 PM,87.1,68.0,53,30.11,-9999.0,Calm,Calm,-,N/A,,Partly Cloudy,0,2013-06-23 19:53:00
4:53 PM,87.1,66.9,51,30.10,-9999.0,SSW,4.6,-,N/A,,Clear,210,2013-06-23 20:53:00
5:53 PM,84.9,71.1,63,30.10,-9999.0,Variable,5.8,-,N/A,,Mostly Cloudy,0,2013-06-23 21:53:00
6:53 PM,82.0,66.9,60,30.11,-9999.0,South,4.6,-,N/A,,Clear,190,2013-06-23 22:53:00
7:53 PM,80.1,64.9,60,30.11,-9999.0,Variable,4.6,-,N/A,,Clear,0,2013-06-23 23:53:00
8:53 PM,75.9,66.0,71,30.13,-9999.0,Calm,Calm,-,N/A,,Clear,0,2013-06-24 00:53:00
9:53 PM,72.0,66.0,81,30.14,-9999.0,Calm,Calm,-,N/A,,Clear,0,2013-06-24 01:53:00
10:53 PM,72.0,66.0,81,30.16,-9999.0,West,4.6,-,N/A,,Clear,260,2013-06-24 02:53:00
11:53 PM,70.0,66.0,87,30.16,-9999.0,Calm,Calm,-,N/A,,Clear,0,2013-06-24 03:53:00